Location: Christchurch
(43.5000°S, 172.6000°E)
Time: 00:05:49
(UTC+13:00)

ISS - Visible Passes

Search period start: 15 December 2024 00:00
Search period end: 25 December 2024 00:00
Orbit: 410 x 420 km, 51.6° (Epoch: 14 December)

Date Brightness Start Highest point End Pass type
(mag) Time Alt. Az. Time Alt. Az. Time Alt. Az.
15 Dec -2.8 01:36:25 10° SW 01:39:12 47° S 01:39:12 47° S visible
15 Dec -1.1 23:10:43 10° SW 23:13:21 20° S 23:16:00 10° SE visible
16 Dec -2.4 00:47:31 10° SW 00:50:44 37° SSE 00:51:21 34° SE visible
16 Dec -1.1 22:21:32 10° SW 22:24:11 20° S 22:26:49 10° SE visible
16 Dec -1.8 23:58:37 10° SW 00:01:39 29° SSE 00:03:36 17° ESE visible
17 Dec -1.6 01:35:12 10° WSW 01:36:26 20° WSW 01:36:26 20° WSW visible
17 Dec -1.5 23:09:38 10° SW 23:12:29 24° SSE 23:15:19 10° ESE visible
18 Dec -2.9 00:46:12 10° SW 00:48:48 48° SW 00:48:48 48° SW visible
18 Dec -1.3 22:20:33 10° SW 22:23:16 21° S 22:25:58 10° ESE visible
18 Dec -3.0 23:57:12 10° SW 00:00:32 49° SSE 00:01:12 42° ESE visible
19 Dec -2.3 23:08:13 10° SW 23:11:23 35° SSE 23:13:39 16° E visible
20 Dec -1.8 00:44:55 10° WSW 00:46:29 23° W 00:46:29 23° W visible
20 Dec -1.9 22:19:11 10° SW 22:22:10 27° SSE 22:25:09 10° ESE visible
20 Dec -3.7 23:55:44 10° WSW 23:58:57 70° WNW 23:58:57 70° WNW visible
21 Dec -3.6 23:06:38 10° SW 23:10:02 69° SSE 23:11:26 32° ENE visible
22 Dec -0.9 00:44:08 10° W 00:44:16 11° W 00:44:16 11° W visible
22 Dec -2.9 22:17:33 10° SW 22:20:51 45° SSE 22:23:57 11° E visible
22 Dec -2.2 23:54:29 10° WSW 23:56:47 26° WNW 23:56:47 26° WNW visible
23 Dec -3.3 23:05:05 10° WSW 23:08:23 48° NW 23:09:19 36° N visible
24 Dec -3.8 22:15:50 10° WSW 22:19:15 83° NW 22:21:52 16° NE visible
24 Dec -1.1 23:54:19 10° WNW 23:54:42 11° WNW 23:54:42 11° WNW visible
